Weather History for Edinburgh Airport, United Kingdom

Change the Weather History Date:

Monday, October 28, 2013

  Actual Average Record
Temperature  
Mean Temperature 48 °F -  
Max Temperature 53 °F 49 °F 62 °F (2005)
Min Temperature 42 °F 36 °F 26 °F (1997)
Degree Days  
Heating Degree Days 16    
Moisture  
Dew Point 44 °F    
Average Humidity 87    
Maximum Humidity 93    
Minimum Humidity 72    
Precipitation  
Precipitation 0.00 in 0.08 in - ()
Sea Level Pressure  
Sea Level Pressure 29.02 in    
Wind  
Wind Speed 12 mph ()    
Max Wind Speed 21 mph    
Max Gust Speed -    
Visibility 6.2 miles    
Events Rain    
Averages and records for this station are not official NWS values.
T = Trace of Precipitation, MM = Missing Value Source: Averaged Metar Reports

Daily Weather History Graph

Daily Weather History Graph

Search for Another Location

Airport:

Trip Planner

Search our weather history database for the weather conditions in past years. The results will help you decide how hot, cold, wet, or windy it might be!

Date:

Astronomy

Oct. 28, 2013 Rise Set
Actual Time 7:11 AM GMT 4:41 PM GMT
Civil Twilight 6:32 AM GMT 5:20 PM GMT
Nautical Twilight 5:49 AM GMT 6:04 PM GMT
Astronomical Twilight 5:06 AM GMT 6:46 PM GMT
Moon No Moon Rise 2:14 PM GMT
Length of Visible Light 10h 47m
Length of Day
9h 29m
Waning Crescent, 36% of the Moon is Illuminated
Oct 28
Waning Crescent
Nov 3
New
Nov 10
First Quarter
Nov 17
Full
Nov 25
Last Quarter

Hourly Weather History & Observations

Time (GMT) Temp. Windchill Dew Point Humidity Pressure Visibility Wind Dir Wind Speed Gust Speed Precip Events Conditions
12:20 AM 48.2 °F - 44.6 °F 87% 28.94 in - WSW 18.4 mph - N/A   Clear
12:50 AM 48.2 °F - 44.6 °F 87% 28.91 in - SW 19.6 mph - N/A   Clear
1:20 AM 48.2 °F - 44.6 °F 87% 28.91 in - SW 13.8 mph - N/A   Clear
1:50 AM 48.2 °F - 44.6 °F 87% 28.91 in - SW 16.1 mph - N/A   Clear
2:20 AM 48.2 °F - 42.8 °F 82% 28.91 in 6.2 mi SW 12.7 mph - N/A   Partly Cloudy
2:50 AM 46.4 °F 41.9 °F 42.8 °F 87% 28.91 in 6.2 mi WSW 9.2 mph - N/A   Partly Cloudy
3:20 AM 44.6 °F 38.8 °F 42.8 °F 93% 28.88 in - SW 11.5 mph - N/A   Clear
3:50 AM 44.6 °F 41.4 °F 41.0 °F 87% 28.88 in 6.2 mi SW 5.8 mph - N/A   Partly Cloudy
4:20 AM 46.4 °F 43.5 °F 42.8 °F 87% 28.88 in 6.2 mi SW 5.8 mph - N/A   Partly Cloudy
4:50 AM 46.4 °F 42.9 °F 42.8 °F 87% 28.88 in - WSW 6.9 mph - N/A   Clear
5:20 AM 44.6 °F 43.1 °F 42.8 °F 93% 28.88 in 6.2 mi Variable 3.5 mph - N/A   Mostly Cloudy
5:50 AM 46.4 °F 42.4 °F 44.6 °F 93% 28.88 in 6.2 mi SSW 8.1 mph - N/A   Mostly Cloudy
6:20 AM 48.2 °F - 44.6 °F 87% 28.88 in 6.2 mi SW 9.2 mph - N/A Rain Light Rain
6:50 AM 48.2 °F - 44.6 °F 87% 28.88 in 6.2 mi SW 9.2 mph - N/A   Scattered Clouds
7:20 AM 48.2 °F - 46.4 °F 93% 28.88 in 6.2 mi WSW 8.1 mph - N/A   Mostly Cloudy
7:50 AM 48.2 °F - 46.4 °F 93% 28.88 in 6.2 mi WSW 9.2 mph - N/A   Mostly Cloudy
8:20 AM 48.2 °F - 46.4 °F 93% 28.91 in 6.2 mi SW 6.9 mph - N/A   Partly Cloudy
8:50 AM 48.2 °F - 46.4 °F 93% 28.91 in 6.2 mi WSW 9.2 mph - N/A   Scattered Clouds
9:20 AM 50.0 °F - 46.4 °F 87% 28.91 in 6.2 mi WSW 13.8 mph - N/A   Scattered Clouds
9:50 AM 50.0 °F - 46.4 °F 87% 28.91 in 6.2 mi WSW 15.0 mph - N/A   Partly Cloudy
10:20 AM 51.8 °F - 46.4 °F 82% 28.91 in 6.2 mi WSW 12.7 mph - N/A   Partly Cloudy
10:50 AM 51.8 °F - 46.4 °F 82% 28.94 in 6.2 mi WSW 15.0 mph - N/A   Partly Cloudy
11:20 AM 51.8 °F - 46.4 °F 82% 28.94 in 6.2 mi WSW 17.3 mph - N/A   Partly Cloudy
11:50 AM 51.8 °F - 46.4 °F 82% 28.97 in 6.2 mi WSW 15.0 mph - N/A   Partly Cloudy
12:20 PM 51.8 °F - 44.6 °F 76% 29.00 in 6.2 mi WSW 17.3 mph - N/A   Partly Cloudy
12:50 PM 53.6 °F - 44.6 °F 72% 29.00 in 6.2 mi WSW 16.1 mph - N/A   Partly Cloudy
1:20 PM 51.8 °F - 44.6 °F 76% 29.00 in 6.2 mi WSW 18.4 mph - N/A   Partly Cloudy
1:50 PM 51.8 °F - 44.6 °F 76% 29.03 in 6.2 mi WSW 18.4 mph - N/A   Partly Cloudy
2:20 PM 51.8 °F - 44.6 °F 76% 29.03 in 6.2 mi WSW 20.7 mph - N/A   Partly Cloudy
2:50 PM 50.0 °F - 44.6 °F 82% 29.06 in 6.2 mi WSW 19.6 mph - N/A   Partly Cloudy
3:20 PM 48.2 °F - 42.8 °F 82% 29.06 in 6.2 mi WSW 20.7 mph - N/A   Partly Cloudy
3:50 PM 48.2 °F - 42.8 °F 82% 29.09 in 6.2 mi WSW 18.4 mph - N/A   Partly Cloudy
4:20 PM 48.2 °F - 44.6 °F 87% 29.09 in 6.2 mi WSW 17.3 mph - N/A Rain Light Rain Showers
4:50 PM 46.4 °F 39.8 °F 42.8 °F 87% 29.12 in 6.2 mi WSW 16.1 mph - N/A Rain Light Rain Showers
5:20 PM 44.6 °F 38.8 °F 42.8 °F 93% 29.12 in 6.2 mi WSW 11.5 mph - N/A   Scattered Clouds
5:50 PM 46.4 °F 40.1 °F 42.8 °F 87% 29.15 in 6.2 mi WSW 15.0 mph - N/A   Partly Cloudy
6:20 PM 46.4 °F 39.5 °F 42.8 °F 87% 29.15 in 6.2 mi WSW 17.3 mph - N/A   Partly Cloudy
6:50 PM 46.4 °F 40.4 °F 42.8 °F 87% 29.15 in 6.2 mi WSW 13.8 mph - N/A   Partly Cloudy
7:20 PM 46.4 °F 40.4 °F 42.8 °F 87% 29.18 in 6.2 mi WSW 13.8 mph - N/A   Partly Cloudy
7:50 PM 46.4 °F 39.8 °F 42.8 °F 87% 29.18 in 6.2 mi WSW 16.1 mph - N/A   Partly Cloudy
8:20 PM 46.4 °F 40.1 °F 42.8 °F 87% 29.18 in 6.2 mi WSW 15.0 mph - N/A   Partly Cloudy
8:50 PM 46.4 °F 40.7 °F 42.8 °F 87% 29.21 in 6.2 mi WSW 12.7 mph - N/A   Scattered Clouds
9:20 PM 46.4 °F 42.4 °F 44.6 °F 93% 29.21 in 6.2 mi West 8.1 mph - N/A Rain Light Rain Showers
9:50 PM 46.4 °F 41.1 °F 44.6 °F 93% 29.24 in 6.2 mi WSW 11.5 mph - N/A Rain Light Rain Showers
10:20 PM 46.4 °F 41.5 °F 44.6 °F 93% 29.27 in 6.2 mi WSW 10.4 mph - N/A Rain Light Rain
10:50 PM 46.4 °F 41.5 °F 42.8 °F 87% 29.27 in - WSW 10.4 mph - N/A   Clear
11:20 PM 44.6 °F 38.8 °F 42.8 °F 93% 29.30 in - WSW 11.5 mph - N/A   Clear
11:50 PM 42.8 °F 38.6 °F 41.0 °F 93% 29.33 in - SW 6.9 mph - N/A   Clear